Weather in Kubitet

Russia / Kemerovo Oblast     55°56′41″N   89°07′56″E
temp.,
°C
wind,
m/s
gust,
m/s
humid.,
%
clouds,
%
prec.,
mm/h
press.,
hPa
HPBL,
m
11 may, tue
tue1101:00+8ene23725 0.0 102041
04:00+6ene23800 0.0 101940
07:00+8ene27730 0.0 1018203
10:00+14ene59460 0.0 10171579
13:00+17e683125 0.0 10162688
16:00+18e672869 0.0 10152840
19:00+17ene4735100 0.0 1016570
22:00+13ne41151100 0.0 1017306
12 may, wed
wed1201:00+10ne3662100 0.0 1018110
04:00+8ne3678100 0.0 1018109
07:00+9ene367975 0.0 1019244
10:00+13ene45574 0.0 1018889
13:00+16ne55407 0.0 10172108
16:00+16ne44345 0.0 10162116
19:00+15ne44344 0.0 10171814
22:00+10ene33441 0.0 101738
13 may, thu
thu1301:00+8ese23525 0.0 101836
04:00+6ese22591 0.0 101733
07:00+8se24550 0.0 1017147
10:00+13se33360 0.0 10161238
13:00+16ese22293 0.0 10151793
16:00+17ene11265 0.0 10132106
19:00+16ese1129100 0.0 10121484
22:00+12se2237100 0.0 101215
14 may, fri
fri1401:00+11wsw224176 0.0 101115
04:00+9w41085100 0.1 1011304
07:00+9wnw4793100 2.9 1010541
10:00+10wnw6863100 2.3 10111444
13:00+6nw7887100 2.8 10131023
16:00+7nw7962100 0.3 10151686
19:00+6nw6106779 0.8 10181336
22:00+3w36745 0.1 1021124
15 may, sat
sat1501:00+2wsw4107473 0.1 1021235
04:00+2wsw4974100 0.0 1021224
07:00+4wsw61161100 0.0 10211148
10:00+4sw81583100 0.6 10191020
13:00+4wsw71696100 5.5 1016908
16:00+5wsw81787100 1.1 1015832
19:00+4nnw3583100 0.2 1019678
22:00